Location: Bartshausen
(51.8454°N, 9.8167°E)
Time: 00:15:44
(UTC+00:00)

ACS3 Solar Sail - Pass Details

Date: 08 November 2025
Orbit: 890 x 1003 km, 97.3° (Epoch: 04 December)

Event Time Altitude Azimuth Distance (km) Brightness Sun altitude
Rises 01:59:26 0° 18° (NNE) 3,533 5.3 -40.7°
Reaches altitude 10° 02:02:05 10° 28° (NNE) 2,599 4.5 -40.4°
Enters shadow 02:05:46 30° 62° (ENE) 1,601 3.3 -39.9°
